GSAT-9

Last updated on Fri Feb 06 2026 00:02:52 GMT+0000 (Coordinated Universal Time)

1 42695U 17024A 26036.36141044 -.00000289 00000+0 00000+0 0 9998 2 42695 0.0274 104.5309 0002437 228.9014 29.4671 1.00274538 31974
UTC large
Height (km)
Speed (km/s)
/
Latitude / Longitude
Inclination (degrees)
Orbital Period (minutes)
Azimuth
Elevation
Range (km)
Doppler Factor

Next 0 passes for location: London (51.5072 / 0.1276)

Sorry there are no passes over London.